Location: Briis
(48.6240°N, 2.1211°E)
Time: 03:11:12
(UTC+00:00)

Intercosmos 25 - Pass Details

Date: 25 September 2020
Orbit: 439 x 2876 km, 82.6° (Epoch: 22 October)

Event Time Altitude Azimuth Distance (km) Brightness Sun altitude
Rises 05:05:22 0° 209° (SSW) 2,791 6.6 -7.0°
Reaches altitude 10° 05:07:53 10° 220° (SW) 1,721 5.4 -6.6°
Maximum altitude 05:11:02 31° 284° (WNW) 830 3.7 -6.1°
Drops below altitude 10° 05:13:56 10° 350° (N) 1,570 5.6 -5.6°
Sets 05:16:07 0° 2° (N) 2,496 6.8 -5.2°
